La Crosse, VA

9:21 AM EST on February 13, 2016 (GMT -0500)
Mecklenburg-Brunswick Regional

Weather History for KAVC - September, 2012

Change the Weather History Date:

Saturday, September 15, 2012

  Actual Average (KEMV) Record (KEMV)
Temperature  
Mean Temperature 66 °F -  
Max Temperature 75 °F 82 °F 95 °F (1991)
Min Temperature 55 °F 58 °F 44 °F (2015)
Cooling Degree Days 1    
Growing Degree Days 16 (Base 50)    
Moisture  
Dew Point 61 °F    
Average Humidity 92    
Maximum Humidity 100    
Minimum Humidity 57    
Precipitation  
Precipitation 0.00 in - - ()
Sea Level Pressure  
Sea Level Pressure 30.22 in    
Wind  
Wind Speed 2 mph (North)    
Max Wind Speed 12 mph    
Max Gust Speed 20 mph    
Visibility 10 miles    
Events      
Averages and records for this station are not official NWS values.
T = Trace of Precipitation, MM = Missing Value Source: NWS Daily Summary

Daily Weather History Graph

Daily Weather History Graph

Search for Another Location

Airport or City:

Trip Planner

Search our weather history database for the weather conditions in past years. The results will help you decide how hot, cold, wet, or windy it might be!

Date:

Astronomy

Sep. 15, 2012 Rise Set
Actual Time 6:54 AM EDT 7:18 PM EDT
Civil Twilight 6:28 AM EDT 7:44 PM EDT
Nautical Twilight 5:58 AM EDT 8:15 PM EDT
Astronomical Twilight 5:27 AM EDT 8:46 PM EDT
Moon 6:23 AM EDT (9/15) 6:49 PM EDT (9/15)
Length of Visible Light 13h 15m
Length of Day
12h 24m
Waning Crescent, 0% of the Moon is Illuminated
Sep 15
Waning Crescent
Sep 15
New
Sep 22
First Quarter
Sep 29
Full
Oct 8
Last Quarter

Hourly Weather History & Observations

Time (EDT) Temp. Dew Point Humidity Pressure Visibility Wind Dir Wind Speed Gust Speed Precip Events Conditions
1:15 AM 62.6 °F 62.6 °F 100% 30.20 in 10.0 mi Calm Calm - N/A   Clear
6:19 AM 60.8 °F 60.8 °F 100% 30.19 in 0.8 mi Calm Calm - N/A   Mist
6:37 AM 60.8 °F 60.8 °F 100% 30.20 in 10.0 mi Calm Calm - N/A   Clear
6:55 AM 60.8 °F 60.8 °F 100% 30.21 in 10.0 mi Calm Calm - N/A   Clear
6:57 AM 60.8 °F 60.8 °F 100% 30.21 in 10.0 mi Calm Calm - N/A   Clear
7:20 AM 60.8 °F 60.8 °F 100% 30.22 in 10.0 mi North 3.5 mph - N/A   Clear
7:37 AM 60.8 °F 60.8 °F 100% 30.23 in 10.0 mi North 4.6 mph - N/A   Clear
7:59 AM 62.6 °F 62.6 °F 100% 30.24 in 10.0 mi North 4.6 mph - N/A   Clear
8:42 AM 66.2 °F 64.4 °F 94% 30.24 in 10.0 mi North 4.6 mph - N/A   Clear
8:57 AM 66.2 °F 64.4 °F 94% 30.24 in 10.0 mi North 6.9 mph - N/A   Clear
9:15 AM 66.2 °F 64.4 °F 94% 30.25 in 10.0 mi North 8.1 mph - N/A   Clear
9:17 AM 66.2 °F 64.4 °F 94% 30.25 in 10.0 mi North 8.1 mph - N/A   Clear
10:15 AM 69.8 °F 60.8 °F 73% 30.26 in 10.0 mi NNE 11.5 mph 19.6 mph N/A   Clear
1:35 PM 75.2 °F 59.0 °F 57% 30.24 in 10.0 mi North 6.9 mph - N/A   Clear
2:35 PM 73.4 °F 57.2 °F 57% 30.23 in 10.0 mi NNW 6.9 mph - N/A   Clear
4:35 PM 73.4 °F 57.2 °F 57% 30.20 in 10.0 mi North 3.5 mph - N/A   Clear
6:35 PM 66.2 °F 60.8 °F 83% 30.20 in 10.0 mi Calm Calm - N/A   Clear
7:35 PM 62.6 °F 62.6 °F 100% 30.20 in 10.0 mi Calm Calm - N/A   Clear
7:55 PM 60.8 °F 60.8 °F 100% 30.20 in 10.0 mi Calm Calm - N/A   Clear
8:35 PM 60.8 °F 60.8 °F 100% 30.21 in 7.0 mi Calm Calm - N/A   Clear
9:15 PM 57.2 °F 57.2 °F 100% 30.21 in 10.0 mi Calm Calm - N/A   Clear
9:55 PM 57.2 °F 57.2 °F 100% 30.22 in 10.0 mi Calm Calm - N/A   Clear
10:35 PM 57.2 °F 57.2 °F 100% 30.22 in 10.0 mi Calm Calm - N/A   Clear
11:55 PM 55.4 °F 55.4 °F 100% 30.22 in 10.0 mi Calm Calm - N/A   Clear